Regional Weather Roundup
Issued by NWS Upton, NY

Home | Current Version | Previous Version | Text Only | Print | Product List | Glossary On
Versions: 1 2 3 4 5 6 7 8 9 10 11 12 13 14 15 16 17 18 19 20 21 22 23 24 25 26 27 28 29 30 31 32 33 34 35 36 37 38 39 40 41 42 43 44 45 46 47 48 49 50
000
ASUS41 KOKX 012105
RWROKX

REGIONAL WEATHER ROUNDUP
NATIONAL WEATHER SERVICE NEW YORK NY
500 PM EDT MON SEP 01 2014

NOTE: "FAIR" INDICATES FEW OR NO CLOUDS BELOW 12,000 FEET WITH NO
SIGNIFICANT WEATHER AND/OR OBSTRUCTIONS TO VISIBILITY.

NYZ071-072-176-178-NJZ106-104-012200-
NEW YORK CITY METRO AREA


CITY           SKY/WX    TMP DP  RH WIND       PRES   REMARKS
CENTRAL PARK   PTSUNNY   85  71  63 VRB3      29.95F HX  90
LAGUARDIA APRT PTSUNNY   86  72  62 S10       29.92F HX  92
KENNEDY INTL   PTSUNNY   80  73  79 S10       29.95S
NEWARK/LIBERTY PTSUNNY   86  71  60 SE12      29.92F HX  91
BRNX BOT. GARD   N/A     86  72  62 SE5       29.93F HX  92
TETERBORO      MOSUNNY   89  70  53 S9        29.91S HX  94
$$

NYZ177-179-078>081-012200-
LONG ISLAND NEW YORK

CITY           SKY/WX    TMP DP  RH WIND       PRES   REMARKS
FARMINGDALE    MOSUNNY   81  70  69 S8        29.94F
ISLIP          PTSUNNY   82  68  62 SW8       29.93F
SHIRLEY        SUNNY     83  70  64 SW10      29.95F
WESTHAMPTON    PTSUNNY   83  70  64 SW9       29.96F
MONTAUK POINT    N/A     81  71  71 S6        29.95F
$$

NYZ052-065-067-012200-
HUDSON VALLEY

CITY           SKY/WX    TMP DP  RH WIND       PRES   REMARKS
WHITE PLAINS   PTSUNNY   83  70  64 S3        29.94F
NEWBURGH       PTSUNNY   84  72  65 W9        29.95F
MONTGOMERY     PTSUNNY   86  69  56 SW6       29.93F HX  90
POUGHKEEPSIE   CLOUDY    86  69  56 SW6       29.91F HX  90
ALBANY         MOSUNNY   86  65  49 SE3       29.91F
$$

NJZ001-105-106-008-010-013-015-019>022-104-012200-
NEW JERSEY

CITY           SKY/WX    TMP DP  RH WIND       PRES   REMARKS
NEWARK/LIBERTY PTSUNNY   86  71  60 SE12      29.92F HX  91
TETERBORO      MOSUNNY   89  70  53 S9        29.91S HX  94
CALDWELL       PTSUNNY   88  68  51 SW6       29.93F HX  91
MORRISTOWN     PTSUNNY   88  70  55 W9        29.93F HX  92
SOMERVILLE     CLOUDY    86  70  58 W3        29.92F HX  90
LINDEN         CLOUDY    92  72  52 W7        29.94S HX 100
SUSSEX         MOSUNNY   87  70  56 CALM      29.95F HX  92
ANDOVER          N/A     83  69  62 MISG      29.95F
TRENTON        PTSUNNY   86  71  60 SW7       29.93F HX  91
MILLVILLE      MOSUNNY   86  73  65 S8        29.95F HX  93
ATLANTIC CITY  PTSUNNY   84  73  69 S10       29.95F HX  90
WRIGHTSTOWN    PTSUNNY   87  72  62 W6        29.92F HX  93
TOMS RIVER     PTSUNNY   88  72  58 W8        29.95S HX  94
BELMAR         CLOUDY    84  72  65 S5        29.95S
$$

PAZ047>061-062-071-012200-
EASTERN PENNSYLVANIA

CITY           SKY/WX    TMP DP  RH WIND       PRES   REMARKS
PHILADELPHIA   MOSUNNY   89  70  53 SW9       29.94F HX  94
ALLENTOWN      CLOUDY    86  69  56 W8        29.95F HX  90
SCRANTON       CLOUDY    83  67  58 W7        29.95F
$$

CTZ002-004>006-009-010-012-RIZ004-006-007-MAZ004-011-015-012200-
SOUTHERN NEW ENGLAND
 IN CT

CITY           SKY/WX    TMP DP  RH WIND       PRES   REMARKS
BRADLEY INTL   MOSUNNY   89  67  47 W7        29.91F HX  92
HARTFORD       PTSUNNY   85  68  56 SW5       29.91S
DANBURY        CLOUDY    83  70  64 SW3       29.96F
WTRBRY/OXFORD  PTSUNNY   82  72  69 SW5       29.99S
BRIDGEPORT     SUNNY     85  72  65 S8        29.93F HX  91
MERIDEN        MOSUNNY   86  70  58 SW3       29.93S HX  90
NEW HAVEN      PTSUNNY   84  71  65 S6        29.93F
CHESTER        FAIR      82  72  69 SW6       29.96S
GROTON         SUNNY     76  72  87 S7        29.93F
WILLIMANTIC    CLOUDY    83  71  67 SW7       29.94S

 IN RI

CITY           SKY/WX    TMP DP  RH WIND       PRES   REMARKS
PROVIDENCE     MOSUNNY   88  70  55 W12       29.92F HX  93
BLOCK ISLAND   SUNNY     79  70  73 SW15      29.96F
WESTERLY       SUNNY     82  71  69 S8        29.95F

 IN MA

CITY           SKY/WX    TMP DP  RH WIND       PRES   REMARKS
BOSTON         PTSUNNY   79  70  74 SE8       29.91F
WORCESTER      SUNNY     81  67  62 W8        29.97S
WESTFIELD      MOSUNNY   88  63  43 W7        29.91F
PROVINCETOWN   MOSUNNY   79  72  78 S7        29.93S
NANTUCKET      MOSUNNY   73  69  87 SW7       29.95F
$$

ANZ330-335-338-340-345-350-353-355-012200-
COASTAL MARINE OBSERVATIONS


STATION/POSITION TIME  SKY/WX   TEMP    WIND        PRES    VSBY  WAVE
                                AIR SEA DIR/SP/G                  HT/PER
                 (UTC)          (F)     (DEG/KT/KT) (MB)    (MI)  (FT/S)
NY HARB ENTRANCE NOT AVBL
4S FIRE IS       NOT AVBL
23SW MTP         2100                                 N/A           3/ 6
HUDSON CANYON    2100            75 75  220/ 10/ 12 1014.9          3/ 5
EXECUTION ROCKS  2100            82 75  210/ 10/ 12   N/A
WESTERN LI SOUND 2100            83     210/  4/  6   N/A           1/ 3
CENTRAL LI SOUND 2000            78 78  160/  4/  6   N/A           1
EASTERN LI SOUND 2000            74 71  160/  4/  6   N/A
ROBBINS REEF     2100            79     170/ 13/ 14   N/A
$$


>>>>>>>>>>>>>>>>>>>>>>>>>>>> KEY <<<<<<<<<<<<<<<<<<<<<<<<<<<
>                                                          <
>     SKY/WX - SKY CONDITION/PRESENT WEATHER               <
>     TMP    - TEMPERATURE IN FAHRENHEIT                   <
>     DP     - DEWPOINT IN FAHRENHEIT                      <
>     RH     - RELATIVE HUMIDITY IN PERCENT                <
>     WIND   - DIRECTION AND SPEED IN MPH                  <
>     PRES   - MEAN SEA LEVEL PRESSURE IN INCHES OF HG     <
>     WCI    - WIND CHILL INDEX                            <
>     VSB    - VISIBILITY IN MILES                         <
>     HX     - HEAT INDEX                                  <
>     TC     - TEMPERATURE IN CELSIUS                      <
>     VRB    - VARIABLE WIND DIRECTION                     <
>                                                          <
>>>>>>>>>>>>>>>>>>>>>>>>>>>> KEY <<<<<<<<<<<<<<<<<<<<<<<<<<<




USA.gov is the U.S. government's official web portal to all federal, state and local government web resources and services.